Location: Joplin, MO
(37.0842°N, 94.5133°W)
Time: 19:37:17
(UTC+02:00)

Courier 1B Rocket - Pass Details

Date: 02 April 2023
Orbit: 920 x 1202 km, 28.2° (Epoch: 08 June)

Event Time Altitude Azimuth Distance (km) Brightness Sun altitude
Rises 05:15:55 0° 264° (W) 3,927 8.9 -29.8°
Reaches altitude 10° 05:19:07 10° 254° (WSW) 2,921 7.9 -30.3°
Enters shadow 05:23:59 28° 214° (SSW) 1,837 6.3 -31.1°
Maximum altitude 05:25:07 30° 197° (SSW) 1,771 - -31.3°
Drops below altitude 10° 05:30:46 10° 139° (SE) 2,740 - -32.2°
Sets 05:33:40 0° 128° (SE) 3,647 - -32.7°
